Weather History for Limon, CO

Change the Weather History Date:

Tuesday, December 4, 2012

  Actual Average Record
Temperature  
Mean Temperature 33 °F -  
Max Temperature 53 °F - 72 °F (2007)
Min Temperature 12 °F - -6 °F (2013)
Degree Days  
Heating Degree Days 32    
Month to date heating degree days 105  
Cooling Degree Days 0    
Month to date cooling degree days 0  
Moisture  
Dew Point 14 °F    
Average Humidity 55    
Maximum Humidity 84    
Minimum Humidity 25    
Precipitation  
Precipitation 0.00 in - 0.06 in (2008)
Month to date precipitation 0.00  
Year to date precipitation 9.51  
Sea Level Pressure  
Sea Level Pressure 30.31 in    
Wind  
Wind Speed 5 mph (NNE)    
Max Wind Speed 15 mph    
Max Gust Speed 18 mph    
Visibility 10 miles    
Events      
T = Trace of Precipitation, MM = Missing Value Source: NWS Daily Summary

Daily Weather History Graph

Daily Weather History Graph

Search for Another Location

Airport:

Trip Planner

Search our weather history database for the weather conditions in past years. The results will help you decide how hot, cold, wet, or windy it might be!

Date:

Astronomy

Dec. 04, 2012 Rise Set
Actual Time 6:58 AM MST 4:31 PM MST
Civil Twilight 6:28 AM MST 5:01 PM MST
Nautical Twilight 5:55 AM MST 5:34 PM MST
Astronomical Twilight 5:23 AM MST 6:07 PM MST
Moon 10:19 PM MST (12/4) 10:55 AM MST (12/4)
Length of Visible Light 10h 32m
Length of Day
9h 32m
Waning Gibbous, 69% of the Moon is Illuminated
Dec 4
Waning Gibbous
Dec 6
Last Quarter
Dec 13
New
Dec 19
First Quarter
Dec 28
Full

Hourly Weather History & Observations

Time (MST) Temp. Windchill Dew Point Humidity Pressure Visibility Wind Dir Wind Speed Gust Speed Precip Events Conditions
12:55 AM 12.9 °F 6.9 °F 8.1 °F 81% 30.26 in 10.0 mi NNW 3.5 mph - N/A   Clear
1:55 AM 15.1 °F 9.4 °F 9.0 °F 77% 30.28 in 10.0 mi NNW 3.5 mph - N/A   Clear
2:55 AM 15.1 °F 6.4 °F 9.0 °F 77% 30.30 in 10.0 mi North 5.8 mph - N/A   Clear
3:55 AM 15.1 °F 6.4 °F 10.0 °F 80% 30.30 in 10.0 mi North 5.8 mph - N/A   Clear
5:55 AM 14.0 °F 2.9 °F 10.0 °F 84% 30.40 in 10.0 mi North 8.1 mph - N/A   Clear
6:55 AM 15.1 °F 5.2 °F 10.9 °F 84% 30.45 in 10.0 mi NNW 6.9 mph - N/A   Clear
7:55 AM 25.0 °F 20.7 °F 16.0 °F 69% 30.43 in 10.0 mi NE 3.5 mph - N/A   Clear
8:55 AM 37.0 °F 34.5 °F 19.9 °F 50% 30.39 in 10.0 mi NW 3.5 mph - N/A   Clear
9:55 AM 46.0 °F - 21.0 °F 37% 30.38 in 10.0 mi Calm Calm - N/A   Clear
10:55 AM 51.1 °F - 21.0 °F 31% 30.34 in 10.0 mi SE 5.8 mph - N/A   Clear
11:55 AM 51.1 °F - 19.0 °F 28% 30.31 in 10.0 mi South 10.4 mph - N/A   Clear
12:55 PM 48.9 °F - 19.0 °F 31% 30.31 in 10.0 mi South 10.4 mph - N/A   Clear
1:55 PM 48.9 °F - 19.0 °F 31% 30.28 in 10.0 mi South 10.4 mph - N/A   Clear
2:55 PM 52.0 °F - 17.1 °F 25% 30.25 in 10.0 mi South 11.5 mph - N/A   Clear
3:55 PM 48.9 °F - 16.0 °F 27% 30.25 in 10.0 mi SSE 10.4 mph - N/A   Clear
4:55 PM 37.0 °F 31.0 °F 15.1 °F 41% 30.30 in 10.0 mi SSE 8.1 mph - N/A   Clear
5:55 PM 32.0 °F - 14.0 °F 48% 30.33 in 10.0 mi Calm Calm - N/A   Clear
6:55 PM 30.0 °F 25.2 °F 12.9 °F 49% 30.32 in 10.0 mi SSE 4.6 mph - N/A   Clear
7:55 PM 21.9 °F 15.7 °F 10.9 °F 63% 30.32 in 10.0 mi NNE 4.6 mph - N/A   Clear
8:55 PM 25.0 °F 18.1 °F 12.9 °F 60% 30.25 in 10.0 mi NNE 5.8 mph - N/A   Clear
9:55 PM 25.0 °F 19.3 °F 14.0 °F 63% 30.22 in 10.0 mi NNW 4.6 mph - N/A   Clear
10:55 PM 24.1 °F 19.7 °F 12.9 °F 62% 30.20 in 10.0 mi North 3.5 mph - N/A   Clear
11:55 PM 25.0 °F 15.5 °F 14.0 °F 63% 30.20 in 10.0 mi North 9.2 mph - N/A   Clear